Time,TemperatureF,DewpointF,PressureIn,WindDirection,WindDirectionDegrees,WindSpeedMPH,WindSpeedGustMPH,Humidity,HourlyPrecipIn,Conditions,Clouds,dailyrainin,SoftwareType,DateUTC
2013-02-17 00:00:00,16.0,-2.0,-100.00,West,263,18.0,37.0,44,-99.99,,,-99.99,,2013-02-17 05:00:00,
2013-02-17 00:42:00,16.0,-2.0,-100.00,West,263,18.0,37.0,44,-99.99,,,-99.99,,2013-02-17 05:42:00,
2013-02-17 00:52:00,16.0,-2.0,-100.00,West,263,18.0,37.0,44,-99.99,,,-99.99,,2013-02-17 05:52:00,
2013-02-17 01:00:00,15.0,-1.0,-100.00,WSW,247,18.0,35.0,46,-99.99,,,-99.99,,2013-02-17 06:00:00,
2013-02-17 01:42:00,15.0,-1.0,-100.00,WSW,247,18.0,35.0,46,-99.99,,,-99.99,,2013-02-17 06:42:00,
2013-02-17 01:52:00,15.0,-1.0,-100.00,WSW,247,18.0,35.0,46,-99.99,,,-99.99,,2013-02-17 06:52:00,
2013-02-17 02:00:00,15.0,-2.0,-100.00,WSW,249,23.0,38.0,46,-99.99,,,-99.99,,2013-02-17 07:00:00,
2013-02-17 02:42:00,15.0,-2.0,-100.00,WSW,249,23.0,38.0,46,-99.99,,,-99.99,,2013-02-17 07:42:00,
2013-02-17 02:52:00,15.0,-2.0,-100.00,WSW,249,23.0,38.0,46,-99.99,,,-99.99,,2013-02-17 07:52:00,
2013-02-17 05:00:00,16.0,-6.0,-100.00,WSW,257,21.0,39.0,36,-99.99,,,-99.99,,2013-02-17 10:00:00,
2013-02-17 05:42:00,16.0,-6.0,-100.00,WSW,257,21.0,39.0,36,-99.99,,,-99.99,,2013-02-17 10:42:00,
2013-02-17 05:52:00,16.0,-6.0,-100.00,WSW,257,21.0,39.0,36,-99.99,,,-99.99,,2013-02-17 10:52:00,
2013-02-17 06:00:00,16.0,-10.0,-100.00,WSW,237,25.0,52.0,29,-99.99,,,-99.99,,2013-02-17 11:00:00,
2013-02-17 06:42:00,16.0,-10.0,-100.00,WSW,237,25.0,52.0,29,-99.99,,,-99.99,,2013-02-17 11:42:00,
2013-02-17 06:52:00,16.0,-10.0,-100.00,WSW,237,25.0,52.0,29,-99.99,,,-99.99,,2013-02-17 11:52:00,
2013-02-17 07:00:00,17.0,-12.0,-100.00,SW,235,25.0,44.0,25,-99.99,,,-99.99,,2013-02-17 12:00:00,
2013-02-17 07:42:00,17.0,-12.0,-100.00,SW,235,25.0,44.0,25,-99.99,,,-99.99,,2013-02-17 12:42:00,
2013-02-17 07:52:00,17.0,-12.0,-100.00,SW,235,25.0,44.0,25,-99.99,,,-99.99,,2013-02-17 12:52:00,
2013-02-17 09:00:00,18.0,-15.0,-100.00,West,264,18.0,30.0,21,-99.99,,,-99.99,,2013-02-17 14:00:00,
2013-02-17 09:42:00,18.0,-15.0,-100.00,West,264,18.0,30.0,21,-99.99,,,-99.99,,2013-02-17 14:42:00,
2013-02-17 09:53:00,18.0,-15.0,-100.00,West,264,18.0,30.0,21,-99.99,,,-99.99,,2013-02-17 14:53:00,
2013-02-17 11:00:00,19.0,-15.0,-100.00,WSW,255,14.0,33.0,21,-99.99,,,-99.99,,2013-02-17 16:00:00,
2013-02-17 11:42:00,19.0,-15.0,-100.00,WSW,255,14.0,33.0,21,-99.99,,,-99.99,,2013-02-17 16:42:00,
2013-02-17 11:52:00,19.0,-15.0,-100.00,WSW,255,14.0,33.0,21,-99.99,,,-99.99,,2013-02-17 16:52:00,
2013-02-17 15:00:00,22.0,-8.0,-100.00,WSW,258,24.0,41.0,26,-99.99,,,-99.99,,2013-02-17 20:00:00,
2013-02-17 15:42:00,22.0,-8.0,-100.00,WSW,258,24.0,41.0,26,-99.99,,,-99.99,,2013-02-17 20:42:00,
2013-02-17 15:52:00,22.0,-8.0,-100.00,WSW,258,24.0,41.0,26,-99.99,,,-99.99,,2013-02-17 20:52:00,
2013-02-17 20:00:00,18.0,-4.0,-100.00,WSW,258,21.0,38.0,37,-99.99,,,-99.99,,2013-02-18 01:00:00,
2013-02-17 20:42:00,18.0,-4.0,-100.00,WSW,258,21.0,38.0,37,-99.99,,,-99.99,,2013-02-18 01:42:00,
2013-02-17 20:52:00,18.0,-4.0,-100.00,WSW,258,21.0,38.0,37,-99.99,,,-99.99,,2013-02-18 01:52:00,
2013-02-17 21:00:00,15.0,2.0,-100.00,West,264,19.0,34.0,55,-99.99,,,-99.99,,2013-02-18 02:00:00,
2013-02-17 21:42:00,15.0,2.0,-100.00,West,264,19.0,34.0,55,-99.99,,,-99.99,,2013-02-18 02:42:00,
2013-02-17 21:52:00,15.0,2.0,-100.00,West,264,19.0,34.0,55,-99.99,,,-99.99,,2013-02-18 02:52:00,